Location: Nelson
(41.2830°S, 173.2830°E)
Time: 19:44:33
(UTC+12:00)

Cosmos 1655 Rocket - Pass Details

Date: 14 May 2021
Orbit: 970 x 1006 km, 82.9° (Epoch: 19 June)

Event Time Altitude Azimuth Distance (km) Brightness Sun altitude
Rises 19:11:53 0° 3° (N) 3,675 7.1 -21.2°
Reaches altitude 10° 19:14:23 10° 6° (N) 2,740 6.4 -21.7°
Maximum altitude 19:20:36 67° 86° (E) 1,077 3.9 -22.8°
Drops below altitude 10° 19:26:59 10° 167° (SSE) 2,798 6.2 -24.0°
Sets 19:29:33 0° 169° (S) 3,759 6.9 -24.5°
